TimeCDT,TemperatureF,Dew PointF,Humidity,Sea Level PressureIn,VisibilityMPH,Wind Direction,Wind SpeedMPH,Gust SpeedMPH,PrecipitationIn,Events,Conditions,WindDirDegrees,DateUTC
12:53 AM,59.0,52.0,78,29.98,10.0,NNE,5.8,-,N/A,,Clear,30,2013-09-14 05:53:00
1:53 AM,57.9,52.0,81,29.99,10.0,NNE,6.9,-,N/A,,Clear,20,2013-09-14 06:53:00
2:53 AM,55.9,52.0,87,29.99,10.0,NNE,6.9,-,N/A,,Clear,20,2013-09-14 07:53:00
3:53 AM,55.0,51.1,86,29.99,10.0,North,6.9,-,N/A,,Clear,10,2013-09-14 08:53:00
4:53 AM,54.0,51.1,90,29.99,10.0,North,6.9,-,N/A,,Clear,10,2013-09-14 09:53:00
5:53 AM,53.1,50.0,89,30.01,10.0,North,5.8,-,N/A,,Clear,10,2013-09-14 10:53:00
6:53 AM,52.0,50.0,93,30.02,10.0,North,5.8,-,N/A,,Clear,10,2013-09-14 11:53:00
7:53 AM,55.9,51.1,84,30.04,10.0,NNE,5.8,-,N/A,,Clear,20,2013-09-14 12:53:00
8:53 AM,61.0,52.0,72,30.05,10.0,North,6.9,-,N/A,,Clear,10,2013-09-14 13:53:00
9:53 AM,66.0,53.1,63,30.05,10.0,NE,3.5,-,N/A,,Clear,40,2013-09-14 14:53:00
10:53 AM,69.1,52.0,54,30.05,10.0,East,5.8,-,N/A,,Clear,90,2013-09-14 15:53:00
11:53 AM,72.0,54.0,53,30.04,10.0,North,6.9,-,N/A,,Clear,350,2013-09-14 16:53:00
12:53 PM,73.9,53.1,48,30.04,10.0,Variable,6.9,-,N/A,,Clear,0,2013-09-14 17:53:00
1:53 PM,75.0,53.1,46,30.02,10.0,Calm,Calm,-,N/A,,Clear,0,2013-09-14 18:53:00
2:53 PM,77.0,54.0,45,30.01,10.0,Variable,4.6,-,N/A,,Clear,0,2013-09-14 19:53:00
3:53 PM,78.1,55.0,45,30.00,10.0,Variable,4.6,-,N/A,,Clear,0,2013-09-14 20:53:00
4:53 PM,78.1,53.1,42,30.00,10.0,Calm,Calm,-,N/A,,Clear,0,2013-09-14 21:53:00
5:53 PM,77.0,54.0,45,30.01,10.0,Calm,Calm,-,N/A,,Clear,0,2013-09-14 22:53:00
6:53 PM,66.9,60.1,79,30.02,10.0,Calm,Calm,-,N/A,,Clear,0,2013-09-14 23:53:00
7:53 PM,63.0,59.0,87,30.04,10.0,Calm,Calm,-,N/A,,Clear,0,2013-09-15 00:53:00
8:53 PM,62.1,57.9,86,30.04,10.0,Calm,Calm,-,N/A,,Clear,0,2013-09-15 01:53:00
9:53 PM,59.0,55.9,90,30.05,10.0,Calm,Calm,-,N/A,,Clear,0,2013-09-15 02:53:00
10:53 PM,57.9,55.9,93,30.06,10.0,North,4.6,-,N/A,,Clear,360,2013-09-15 03:53:00
11:53 PM,57.9,55.0,90,30.06,10.0,Calm,Calm,-,N/A,,Clear,0,2013-09-15 04:53:00